Regional Weather Roundup
Issued by NWS San Angelo, TX

Home | Current Version | Previous Version | Graphics & Text | Print | Product List | Glossary Off
Versions: 1 2 3 4 5 6 7 8 9 10 11 12 13 14 15 16 17 18 19 20 21 22 23 24 25 26 27 28 29 30 31 32 33 34 35 36 37 38 39 40 41 42 43 44 45 46 47 48 49 50

000
ASUS44 KSJT 170510
RWRSJT
WEST CENTRAL TEXAS REGIONAL WEATHER ROUNDUP
NATIONAL WEATHER SERVICE SAN ANGELO TX
1200 AM CDT WED SEP 17 2014

NOTE: "FAIR" INDICATES FEW OR NO CLOUDS BELOW 12,000 FEET WITH NO
SIGNIFICANT WEATHER AND/OR OBSTRUCTIONS TO VISIBILITY.

TXZ049-054-064>066-071>073-076>078-098-099-113-114-127-128-139-140-
154-155-168>170-170600
...LOCATIONS ACROSS WEST CENTRAL TEXAS...

CITY           SKY/WX    TMP DP  RH WIND       PRES   REMARKS
SAN ANGELO     CLOUDY    80  66  62 SE7       30.05S
ABILENE        CLOUDY    78  66  66 CALM      30.07R
DYESS AFB      CLOUDY    77  68  72 N5        30.06S
JUNCTION       CLOUDY    78  69  73 E7        30.05F
SWEETWATER     CLOUDY    73  71  94 CALM      30.12S
BROWNWOOD      CLOUDY    77  66  69 SE8       30.05S
COLEMAN        CLOUDY    80  66  62 SE10      30.06S
SONORA         CLOUDY    75  70  83 CALM      30.11S
OZONA          FAIR      73  64  73 E3        30.10S
BRADY            N/A     73  70  88 SE8       30.06S
$$

TEXAS PANHANDLE/OKLAHOMA PANHANDLE

CITY           SKY/WX    TMP DP  RH WIND       PRES   REMARKS
AMARILLO       CLOUDY    66  62  87 SW9       30.12S
BORGER         CLOUDY    72  62  71 SW10      30.07F
CANADIAN       MOCLDY    73  66  78 SW7       30.03F
DALHART        CLOUDY    66  60  81 SW10      30.12S
DUMAS          CLOUDY    66  60  81 SW9       30.10S
GUYMON         NOT AVBL
HEREFORD       CLOUDY    65  64  96 S7        30.14S
PAMPA          CLOUDY    65  61  85 S8        30.10S
PERRYTON       PTCLDY    65  59  81 S6        30.05F
$$

SOUTHERN PANHANDLE/SOUTH PLAINS/ROLLING PLAINS

CITY           SKY/WX    TMP DP  RH WIND       PRES   REMARKS
LUBBOCK        LGT RAIN  68  67  96 SW3       30.12F FOG
SNYDER         CLOUDY    71  69  94 E5        30.10S
CHILDRESS      CLOUDY    75  67  76 SW7       30.05F
SEMINOLE       CLOUDY    67  66  96 CALM      30.15S
$$

PERMIAN BASIN

CITY           SKY/WX    TMP DP  RH WIND       PRES   REMARKS
MIDLAND        MOCLDY    74  65  73 E8        30.10S
ODESSA         MOCLDY    72  65  78 E6        30.12S
WINK           PTCLDY    74  68  81 NE10      30.08S
$$

FAR WEST/SOUTHWEST MOUNTAINS/TRANS PECOS

CITY           SKY/WX    TMP DP  RH WIND       PRES   REMARKS
ALPINE         PTCLDY    68  60  76 CALM      30.22F
DRYDEN           N/A     78  68  71 CALM      30.03F
EL PASO        CLOUDY    70  64  81 N14       30.11S
FORT STOCKTON  PTCLDY    71  64  78 SE5       30.10S
GUADALUPE PASS CLOUDY    65  59  81 NE26      30.22F
MARFA          MOCLDY    64  61  88 NE7       30.19F
PECOS          PTCLDY    72  63  74 NE6       30.07S
$$

DALLAS/FORT WORTH METROPLEX

CITY           SKY/WX    TMP DP  RH WIND       PRES   REMARKS
DFW AIRPORT    MOCLDY    82  69  64 SE8       30.01F
FTW MEACHAM    PTCLDY    81  69  67 SE9       30.00F
DAL-EXECUTIVE  MOCLDY    81  69  67 SE6       30.01F
GRAND PRAIRIE  PTCLDY    81  68  65 SE3       30.03S
ADDISON        PTCLDY    82  67  60 SE7       30.03F
MESQUITE       MOCLDY    77  68  73 SE3       30.02S
LANCASTER      PTCLDY    77  68  72 CALM      30.02F
$$

NORTH CENTRAL TEXAS

CITY           SKY/WX    TMP DP  RH WIND       PRES   REMARKS
SHRMAN/DENISON CLOUDY    78  69  73 SE9       30.03F
GAINESVILLE    MOCLDY    76  69  80 E5        30.05S
BRIDGEPORT     MOCLDY    76  65  68 S3        30.04S
DENTON         PTCLDY    78  68  71 SE7       30.01F
WAXAHACHIE     PTCLDY    79  68  70 SE5       30.03F
GRANBURY       CLOUDY    83  69  63 E3        30.03S
$$

WESTERN NORTH TEXAS

CITY           SKY/WX    TMP DP  RH WIND       PRES   REMARKS
WICHITA FALLS  CLOUDY    76  68  76 S7        30.01S
VERNON         CLOUDY    78  67  68 S5        30.03S
BRECKENRIDGE   CLOUDY    82  66  58 SE8       30.03S
COMANCHE         N/A     78  68  71 SE10      30.04F
$$

CENTRAL AND SOUTH CENTRAL TEXAS

CITY           SKY/WX    TMP DP  RH WIND       PRES   REMARKS
AUSTIN/BERGSTM CLOUDY    76  74  93 CALM      30.01F
WACO           CLOUDY    76  72  87 S5        30.01F
HILLSBORO      MOCLDY    78  71  78 S6        30.02F
TEMPLE         PTCLDY    73  66  78 E3        30.01F
KILLEEN-GRAY   PTCLDY    75  72  88 SE5       30.02F
FORT HOOD      PTCLDY    76  72  87 CALM      30.02F
GEORGETOWN     CLOUDY    75  72  88 CALM      30.02F
LAGO VISTA     FAIR      74  72  92 E3        30.04F
SAN MARCOS     CLOUDY    75  70  83 E3        30.03F
NEW BRAUNFELS  CLOUDY    77  72  84 NE9       30.01S
RANDOLPH AFB   CLOUDY    75  73  94 E7        30.02S
SAN ANTONIO    CLOUDY    79  74  84 E8        30.02S
STINSON        MOCLDY    79  74  84 NE7       29.99S
PLEASANTON     NOT AVBL
LA GRANGE      CLOUDY    77  76  98 CALM      30.00F
GIDDINGS       CLOUDY    74  73  95 CALM      30.05F FOG
$$

EAST TEXAS

CITY           SKY/WX    TMP DP  RH WIND       PRES   REMARKS
PARIS          MOCLDY    75  64  69 SE3       30.03F
CLARKSVILLE    NOT AVBL
TYLER          PTCLDY    77  72  84 S5        30.02F
LONGVIEW       MOCLDY    77  70  79 S7        30.01F
PALESTINE      MOCLDY    75  72  89 CALM      30.02F
NACOGDOCHES    MOCLDY    72  68  88 E5        30.03F
$$

TEXAS HILL COUNTRY AND EDWARDS PLATEAU

CITY           SKY/WX    TMP DP  RH WIND       PRES   REMARKS
LLANO          PTCLDY    75  73  94 CALM      30.07S
HORSESHOE BAY  DRIZZLE   74  74 100 SE5       30.03F
KERRVILLE      MOCLDY    76  72  86 NE3       30.06F
FREDERICKSBRG  LGT RAIN  73  71  95 S3        30.06S
ROCKSPRINGS    PTCLDY    75  70  83 CALM      30.09S
HONDO          CLOUDY    81  71  71 E8        30.03R
UVALDE         CLEAR     78  74  86 NE5       30.01R
DEL RIO        CLOUDY    82  71  69 E8        29.98R
$$

SOUTHEAST TEXAS

CITY           SKY/WX    TMP DP  RH WIND       PRES   REMARKS
COLLEGE STN    CLOUDY    76  75  97 SE6       30.00F
CALDWELL       CLOUDY    73  73 100 CALM      30.03F
CROCKETT       PTCLDY    75  73  94 CALM      30.05F
BRENHAM        LGT RAIN  76  75  95 S5        30.00F
HUNTSVILLE     CLOUDY    76  74  93 CALM      30.02S
CONROE         CLOUDY    75  74  96 CALM      30.02F
HOUSTON BUSH   CLOUDY    77  75  93 SE3       30.01F
HOUSTON HOBBY  CLOUDY    78  76  93 CALM      30.01S
PERLAND        CLOUDY    79  76  90 E5        30.02S
WHARTON        CLOUDY    76  75  96 NE3       30.01F
$$

THE UPPER TEXAS COAST

CITY           SKY/WX    TMP DP  RH WIND       PRES   REMARKS
ORANGE         CLOUDY   N/A N/A N/A N3        30.03S
PORT ARTHUR    CLOUDY    78  76  93 E3        30.00F
GALVESTON      CLOUDY    81  78  91 S9        30.02S
ANGLETON       CLOUDY    76  75  97 CALM      30.00F
BAY CITY       CLOUDY   N/A N/A N/A CALM      30.00S
$$

TEXAS COASTAL BEND, RIO GRANDE PLAINS DEEP SOUTH TEXAS

CITY           SKY/WX    TMP DP  RH WIND       PRES   REMARKS
VICTORIA       PTCLDY    78  75  90 E5        30.00S
BEEVILLE       FAIR      78  77  98 E3        29.98S
ROCKPORT       PTCLDY    80  76  87 SE8       29.97S
PORT ARANSAS   CLEAR     82  75  78 S12G17    29.96F
PORT LAVACA    MOCLDY    78  76  94 SE3       29.99S
CORPUS CHRISTI PTCLDY    80  76  87 SE6       29.96F
KINGSVILLE NAS PTCLDY    80  77  90 SE9       29.96S
COTULLA        PTCLDY   N/A N/A N/A E8        29.97S
LAREDO         PTCLDY    78  78 100 SE3       29.99S
BROWNSVILLE    PTCLDY    79  76  90 CALM      29.98R
PORT ISABEL    PTCLDY    80  75  84 CALM      29.98R
HEBBRONVILLE     N/A     77  75  92 SE3       29.98F
MCALLEN        CLEAR     78  76  93 SE7       29.98S
WESLACO        PTCLDY    78  74  86 S6        29.97S
FALFURRIAS     PTCLDY    68  63  83 S12       29.96S
EDINBURG       CLEAR     80  74  83 SE6       29.97F
$$



USA.gov is the U.S. government's official web portal to all federal, state and local government web resources and services.